Weather History for Concord, NC

Change the Weather History Date:

Thursday, May 9, 2013

  Actual Average (KCLT) Record (KCLT)
Temperature  
Mean Temperature 65 °F 65 °F  
Max Temperature 80 °F 77 °F 94 °F (1889)
Min Temperature 50 °F 54 °F 39 °F (1984)
Degree Days  
Heating Degree Days 0 2  
Month to date heating degree days 25  
Since 1 July heating degree days 3357  
Cooling Degree Days 0 3  
Month to date cooling degree days 20  
Year to date cooling degree days 57  
Growing Degree Days 15 (Base 50)    
Moisture  
Dew Point 53 °F    
Average Humidity 72    
Maximum Humidity 100    
Minimum Humidity 32    
Precipitation  
Precipitation 0.00 in 0.10 in 1.35 in (1989)
Month to date precipitation 0.88  
Year to date precipitation 14.66  
Snow  
Snow 0.00 in 0.00 in 0.00 in ()
Month to date snowfall 0.0  
Since 1 July snowfall 4.3  
Snow Depth -    
Sea Level Pressure  
Sea Level Pressure 30.09 in    
Wind  
Wind Speed 1 mph (WNW)    
Max Wind Speed 8 mph    
Max Gust Speed -    
Visibility 9 miles    
Events      
T = Trace of Precipitation, MM = Missing Value Source: NWS Daily Summary

Daily Weather History Graph

Daily Weather History Graph

Search for Another Location

Airport:

Trip Planner

Search our weather history database for the weather conditions in past years. The results will help you decide how hot, cold, wet, or windy it might be!

Date:

Astronomy

May. 09, 2013 Rise Set
Actual Time 6:23 AM EDT 8:15 PM EDT
Civil Twilight 5:55 AM EDT 8:43 PM EDT
Nautical Twilight 5:21 AM EDT 9:17 PM EDT
Astronomical Twilight 4:45 AM EDT 9:53 PM EDT
Moon 6:05 AM EDT (5/9) 8:09 PM EDT (5/9)
Length of Visible Light 14h 48m
Length of Day
13h 52m
Waning Crescent, 0% of the Moon is Illuminated
May 9
Waning Crescent
May 9
New
May 18
First Quarter
May 25
Full
May 31
Last Quarter

Hourly Weather History & Observations

Time (EDT) Temp. Dew Point Humidity Pressure Visibility Wind Dir Wind Speed Gust Speed Precip Events Conditions
12:15 AM 57.2 °F 55.4 °F 94% 30.05 in 10.0 mi Calm Calm - N/A   Scattered Clouds
12:35 AM 55.4 °F 53.6 °F 94% 30.05 in 10.0 mi Calm Calm - N/A   Clear
2:15 AM 53.6 °F 53.6 °F 100% 30.05 in 7.0 mi Calm Calm - N/A   Clear
3:35 AM 53.6 °F 51.8 °F 94% 30.05 in 5.0 mi Calm Calm - N/A   Clear
4:15 AM 51.8 °F 51.8 °F 100% 30.05 in 4.0 mi Calm Calm - N/A   Clear
4:35 AM 51.8 °F 51.8 °F 100% 30.05 in 2.5 mi Calm Calm - N/A   Clear
5:15 AM 51.8 °F 50.0 °F 94% 30.04 in 5.0 mi Calm Calm - N/A   Clear
5:35 AM 51.8 °F 50.0 °F 94% 30.05 in 3.0 mi Calm Calm - N/A   Clear
5:55 AM 50.0 °F 50.0 °F 100% 30.06 in 7.0 mi Calm Calm - N/A   Clear
6:55 AM 51.8 °F 50.0 °F 94% 30.07 in 10.0 mi Calm Calm - N/A   Clear
7:35 AM 55.4 °F 53.6 °F 94% 30.10 in 5.0 mi Calm Calm - N/A   Clear
7:55 AM 57.2 °F 55.4 °F 94% 30.11 in 10.0 mi Calm Calm - N/A   Clear
8:55 AM 64.4 °F 57.2 °F 77% 30.12 in 10.0 mi Calm Calm - N/A   Clear
9:55 AM 69.8 °F 57.2 °F 64% 30.12 in 10.0 mi Calm Calm - N/A   Clear
10:55 AM 73.4 °F 55.4 °F 53% 30.13 in 10.0 mi Calm Calm - N/A   Clear
11:55 AM 75.2 °F 51.8 °F 44% 30.12 in 10.0 mi Calm Calm - N/A   Clear
12:55 PM 77.0 °F 51.8 °F 41% 30.12 in 10.0 mi West 5.8 mph - N/A   Clear
1:55 PM 78.8 °F 50.0 °F 36% 30.12 in 10.0 mi North 8.1 mph - N/A   Clear
2:55 PM 80.6 °F 48.2 °F 32% 30.11 in 10.0 mi NW 6.9 mph - N/A   Scattered Clouds
3:55 PM 80.6 °F 50.0 °F 34% 30.08 in 10.0 mi West 8.1 mph - N/A   Scattered Clouds
4:55 PM 80.6 °F 48.2 °F 32% 30.07 in 10.0 mi West 5.8 mph - N/A   Scattered Clouds
5:55 PM 80.6 °F 50.0 °F 34% 30.07 in 10.0 mi Calm Calm - N/A   Scattered Clouds
6:55 PM 80.6 °F 48.2 °F 32% 30.06 in 10.0 mi SW 5.8 mph - N/A   Scattered Clouds
8:55 PM 69.8 °F 53.6 °F 56% 30.09 in 10.0 mi Calm Calm - N/A   Clear
9:15 PM 64.4 °F 53.6 °F 68% 30.09 in 10.0 mi Calm Calm - N/A   Clear
9:35 PM 64.4 °F 53.6 °F 68% 30.10 in 10.0 mi Calm Calm - N/A   Clear
9:55 PM 62.6 °F 55.4 °F 77% 30.11 in 10.0 mi Calm Calm - N/A   Clear
10:15 PM 64.4 °F 53.6 °F 68% 30.11 in 10.0 mi Calm Calm - N/A   Clear
10:35 PM 62.6 °F 55.4 °F 77% 30.12 in 10.0 mi Calm Calm - N/A   Mostly Cloudy
10:55 PM 62.6 °F 55.4 °F 77% 30.12 in 10.0 mi Calm Calm - N/A   Mostly Cloudy
11:15 PM 60.8 °F 55.4 °F 82% 30.11 in 10.0 mi Calm Calm - N/A   Scattered Clouds
11:35 PM 60.8 °F 55.4 °F 82% 30.11 in 10.0 mi Calm Calm - N/A   Clear
11:55 PM 60.8 °F 55.4 °F 82% 30.11 in 10.0 mi Calm Calm - N/A   Clear